レモン彗星

C/2018 R3 ( Lemmon )

English version
Home page
Updated on August 19, 2019

---------------------------------------------------------------------

・ プロフィール

発見日 2018年9月7日
発見光度 19.2等
発見者 B. M. Africano (Mount Lemmon Survey)

・ 写真集

・ 軌道要素

Epoch 2019 June 6.0 TT = JDT 2458640.5                                          
T 2019 June 7.19940 TT                                  Williams                
q   1.2905825            (2000.0)            P               Q                  
z  +0.0005195      Peri.  112.87744     -0.13207471     -0.82927042             
 +/-0.0000034      Node   324.62538     +0.10168508     +0.53359051             
e   0.9993296      Incl.   69.71534     +0.98601035     -0.16610763             
H                                                                               
From 228 observations 2018 Aug. 8-2019 July 4, mean residual 0".6.              

・ 星図

・ 光度変化

        m1 = 11.0 + 5 logΔ + 10.0 log r  [   ,-47]  (              〜2019年 4月21日)
        m1 =  1.0 + 5 logΔ + 70   log r  [-47,  0]  (2019年 4月21日〜2019年 6月 7日)
        m1 =  5.5 + 5 logΔ + 30   log r  [  0,   ]  (2019年 6月 7日〜              )

---------------------------------------------------------------------

軌道要素はM.P.E.C. 2019-Q14に掲載されたものです。
星図はステラナビゲータ Ver.10 (アストロアーツ) で作成したものです。
光度グラフはComet for Windowsで作成したものです。

---------------------------------------------------------------------

Copyright(C) Seiichi Yoshida (comet@aerith.net). All rights reserved.